Voltar ao catálogo

STARLINK-3589

AtivoComunicaçõesVLEO
NORAD 51997·PAYLOAD·🇺🇸 United States

Lançado Mar 9, 2022 de Cape Canaveral Space Force Station

Loading…

Próximas Passagens (próximas 24 horas)

TLE

AtualizadoSource: CelesTrak SupGP

Época: Sep 14, 2026, 22:05 UTC

1 51997C 22025AT  26257.92062500  .00029108  00000+0  86005-3 0  2576
2 51997  53.1565 235.5506 0001367  95.9413 327.9277 15.34374166    10

Acompanhe STARLINK-3589 em tempo real com AllMySat

Download on the App Store